Home   Weather   Sterling   Past weeks
Flag for USA

Past Weather in Sterling, Virginia, USA — Yesterday and Last 2 Weeks

Now
82 °F

Mostly cloudy.


Feels Like: 87 °F
Forecast: 93 / 74 °F
Wind: 5 mph from South

Location: Washington-Dulles International Airport

Current Time: Jul 17, 2019 at 12:56:01 am

Latest Report: Jul 16, 2019 at 11:52 pm


Visibility: 10 mi

Pressure: 30.03 "Hg

Humidity: 72%

Dew Point: 72 °F

Location of SterlingLocation

Past Weather in Sterling — Graph

°F

Sterling Temperature Yesterday

Maximum temperature yesterday: 93 °F (at 2:52 pm)
Minimum temperature yesterday: 70 °F (at 5:52 am)
Average temperature yesterday: 83 °F

High & Low Weather Summary for the Past Weeks

 TemperatureHumidityPressure
High94 °F (Jul 2, 4:52 pm)97% (Jul 5, 1:52 am)30.13 "Hg (Jul 5, 1:52 am)
Low61 °F (Jul 2, 5:52 am)37% (Jul 15, 11:52 am)29.78 "Hg (Jul 12, 3:52 am)
Average79 °F71%29.96 "Hg
* Reported Jul 1 10:52 pm — Jul 16 10:52 pm, Sterling. Weather by CustomWeather, © 2019

Note: Actual official high and low records may vary slightly from our data, if they occured in-between our weather recording intervals... More about our weather records

Advertising

Sterling Weather History for the Previous 24 Hours

Scroll right to see more
 ConditionsComfort  
Time TempWeatherWind HumidityBarometerVisibility
10:52 pm
Tue, Jul 16
84 °FPartly cloudy.9 mph72%30.03 "Hg10 mi
9:52 pm85 °FPartly cloudy.5 mph65%30.03 "Hg10 mi
8:52 pm86 °FPartly cloudy.6 mph63%30.00 "Hg10 mi
7:52 pm88 °FBroken clouds.6 mph57%30.01 "Hg10 mi
6:52 pm90 °FPartly sunny.6 mph52%30.00 "Hg10 mi
5:52 pm91 °FScattered clouds.7 mph50%30.00 "Hg10 mi
4:52 pm92 °FScattered clouds.7 mph49%30.01 "Hg10 mi
3:52 pm92 °FScattered clouds.8 mph49%30.02 "Hg10 mi
2:52 pm93 °FScattered clouds.9 mph44%30.03 "Hg10 mi
1:52 pm92 °FBroken clouds.9 mph47%30.05 "Hg10 mi
12:52 pm92 °FSunny.7 mph46%30.07 "Hg10 mi
11:52 am89 °FScattered clouds.5 mph48%30.09 "Hg10 mi
10:52 am87 °FPassing clouds.6 mph55%30.09 "Hg7 mi
9:52 am84 °FPassing clouds.3 mph63%30.09 "Hg10 mi
8:52 am82 °FPassing clouds.No wind63%30.10 "Hg8 mi
7:52 am76 °FPassing clouds.3 mph77%30.09 "Hg10 mi
6:52 am73 °FPassing clouds.6 mph79%30.08 "Hg10 mi
5:52 am70 °FPassing clouds.3 mph87%30.06 "Hg10 mi
4:52 am72 °FPassing clouds.No wind84%30.06 "Hg10 mi
3:52 am72 °FPassing clouds.No wind84%30.05 "Hg10 mi
2:52 am72 °FPassing clouds.No wind81%30.06 "Hg10 mi
1:52 am72 °FPassing clouds.No wind81%30.06 "Hg10 mi
12:52 am74 °FPassing clouds.No wind76%30.06 "Hg10 mi
Weather by CustomWeather, © 2019

See weather overview